DW9987 Weather Reports


time (UTC)temp
C
wind
direction
speed
KPH
gust
KPH
rain 1hr
cm
rain 24hr
cm
rain mn
cm
humidity
%
barometer
mb
20260507074507 1 5 0.0 0.0 0.00 0.00 0.00 80 1016.3
20260507073005 2 5 0.0 0.0 0.00 0.00 0.00 80 1016.4
20260507071504 2 5 0.0 0.0 0.00 0.00 0.00 80 1016.3
20260507070008 2 5 0.0 0.0 0.00 0.00 0.00 80 1016.4
20260507064502 2 5 0.0 0.0 0.00 0.00 0.00 79 1016.7
20260507063103 2 5 0.0 0.0 0.00 0.00 0.00 79 1016.7
20260507061600 2 5 0.0 0.0 0.00 0.00 0.00 79 1016.7
20260507060103 2 5 0.0 0.0 0.00 0.00 0.00 77 1016.8
20260507054557 2 5 0.0 0.0 0.00 0.00 0.00 76 1016.8
20260507053055 2 5 0.0 0.0 0.00 0.00 0.00 76 1016.7
20260507051557 3 5 0.0 0.0 0.00 0.00 0.00 74 1016.7
20260507050051 3 5 0.0 0.0 0.00 0.00 0.00 74 1016.7
20260507044552 3 5 0.0 0.0 0.00 0.00 0.00 73 1016.6
20260507043049 3 5 0.0 0.0 0.00 0.00 0.00 72 1016.6
20260507041545 3 5 0.0 0.0 0.00 0.00 0.00 70 1016.6
20260507040040 5 5 0.0 0.0 0.00 0.00 0.00 68 1016.6
20260507034539 5 5 0.0 0.0 0.00 0.00 0.00 65 1016.6
20260507033033 6 5 0.0 0.0 0.00 0.00 0.00 61 1016.6
20260507031530 6 5 0.0 0.0 0.00 0.00 0.00 57 1016.5
20260507030028 7 5 0.0 0.0 0.00 0.00 0.00 55 1016.4
20260507024526 7 5 0.0 1.6 0.00 0.00 0.00 54 1016.3
20260507023025 7 5 0.0 1.6 0.00 0.00 0.00 52 1016.3
20260507021519 7 351 0.0 3.2 0.00 0.00 0.00 51 1016.1
20260507020028 8 5 0.0 4.8 0.00 0.00 0.00 50 1015.8
20260507014513 8 360 0.0 1.6 0.00 0.00 0.00 49 1015.7
20260507013018 8 355 0.0 6.4 0.00 0.00 0.00 47 1015.5
20260507011509 9 303 0.0 8.0 0.00 0.00 0.00 46 1015.6
20260507010006 10 355 1.6 9.7 0.00 0.00 0.00 45 1015.5
20260507004502 10 325 3.2 12.9 0.00 0.00 0.00 43 1015.4
20260507003100 10 15 3.2 12.9 0.00 0.00 0.00 43 1015.4
20260507001558 10 229 4.8 16.1 0.00 0.00 0.00 42 1015.3
20260507000055 11 339 3.2 12.9 0.00 0.00 0.00 43 1015.1
20260506234552 11 313 3.2 24.1 0.00 0.00 0.00 41 1015.0
20260506233103 11 344 3.2 12.9 0.00 0.00 0.00 41 1014.8
20260506231548 11 342 6.4 24.1 0.00 0.00 0.00 40 1014.9
20260506230044 12 21 4.8 16.1 0.00 0.00 0.00 39 1014.7
20260506214516 13 32 3.2 12.9 0.00 0.00 0.00 39 1014.3
20260506213015 13 355 4.8 25.7 0.00 0.00 0.00 37 1014.2
20260506211522 13 333 8.0 24.1 0.00 0.00 0.00 36 1014.2
20260506210022 14 178 6.4 19.3 0.00 0.00 0.00 37 1014.1
20260506204512 13 5 3.2 16.1 0.00 0.00 0.00 38 1014.2
20260506203011 13 58 4.8 25.7 0.00 0.00 0.00 38 1014.5
20260506201511 13 343 8.0 20.9 0.00 0.00 0.00 38 1014.4
20260506200025 13 339 4.8 22.5 0.00 0.00 0.00 37 1014.4
20260506194509 13 28 9.7 25.7 0.00 0.00 0.00 37 1014.6
20260506193009 13 360 3.2 17.7 0.00 0.00 0.00 37 1014.7
20260506191508 13 128 4.8 20.9 0.00 0.00 0.00 37 1014.7
20260506190008 13 360 1.6 12.9 0.00 0.00 0.00 37 1014.6
20260506184506 13 118 3.2 14.5 0.00 0.00 0.00 39 1014.6
20260506183006 13 5 1.6 12.9 0.00 0.00 0.00 44 1014.7
20260506181504 12 229 1.6 11.3 0.00 0.00 0.00 42 1014.7
20260506180013 12 317 4.8 19.3 0.00 0.00 0.00 40 1014.8
20260506174503 13 269 1.6 16.1 0.00 0.00 0.00 40 1014.7
20260506173003 12 65 3.2 19.3 0.00 0.00 0.00 42 1015.0
20260506171502 13 230 1.6 19.3 0.00 0.00 0.00 41 1014.9
20260506170110 13 66 3.2 17.7 0.00 0.00 0.00 44 1015.0
20260506164623 12 328 3.2 16.1 0.00 0.03 0.00 42 1015.0
20260506163106 13 33 4.8 19.3 0.00 0.03 0.00 41 1014.9
20260506161555 12 91 3.2 14.5 0.00 0.03 0.00 44 1014.9
20260506160106 11 78 1.6 8.0 0.00 0.03 0.00 46 1015.0
20260506154554 11 349 4.8 11.3 0.00 0.03 0.00 47 1014.9
20260506153050 11 146 0.0 9.7 0.00 0.03 0.00 48 1015.0
20260506151550 11 16 1.6 6.4 0.00 0.03 0.00 49 1014.9
20260506150048 11 348 0.0 6.4 0.00 0.03 0.00 48 1015.0
20260506144546 11 239 1.6 6.4 0.00 0.03 0.00 51 1015.0
20260506143045 11 207 0.0 3.2 0.00 0.03 0.00 53 1015.0
20260506141602 10 27 0.0 1.6 0.00 0.03 0.00 64 1015.0
20260506140041 10 343 0.0 3.2 0.00 0.03 0.00 63 1015.0
20260506134538 9 355 0.0 3.2 0.00 0.05 0.00 63 1014.9
20260506133036 8 360 0.0 3.2 0.00 0.05 0.00 68 1014.6
20260506131537 7 5 0.0 0.0 0.00 0.05 0.00 72 1014.2
20260506130032 7 5 0.0 0.0 0.00 0.05 0.00 77 1014.2
20260506124537 6 5 0.0 0.0 0.00 0.15 0.00 80 1014.1
20260506123038 5 5 0.0 0.0 0.00 0.15 0.00 82 1013.9
20260506121527 4 5 0.0 0.0 0.00 0.15 0.00 84 1013.6
20260506120036 4 5 0.0 0.0 0.00 0.15 0.00 84 1013.5
20260506114526 3 5 0.0 0.0 0.00 0.15 0.00 86 1013.3
20260506113023 3 5 0.0 0.0 0.00 0.15 0.00 84 1013.3
20260506111521 3 5 0.0 0.0 0.00 0.15 0.00 84 1013.1
20260506110025 3 5 0.0 0.0 0.00 0.15 0.00 83 1013.0
20260506104518 3 5 0.0 0.0 0.00 0.15 0.00 84 1012.9
20260506103026 3 5 0.0 0.0 0.00 0.15 0.00 83 1012.7
20260506101513 3 5 0.0 0.0 0.00 0.15 0.00 81 1012.3
20260506100012 3 5 0.0 0.0 0.00 0.15 0.00 79 1012.1
20260506094525 4 5 0.0 0.0 0.00 0.15 0.00 79 1012.1
20260506093007 4 5 0.0 0.0 0.00 0.15 0.00 79 1012.2
20260506091506 5 5 0.0 1.6 0.00 0.15 0.00 79 1012.1
20260506090004 5 5 0.0 0.0 0.00 0.15 0.00 78 1011.9
20260506084504 5 5 0.0 0.0 0.00 0.15 0.00 76 1012.1
20260506083002 5 5 0.0 0.0 0.00 0.15 0.00 73 1012.0
20260506081602 5 5 0.0 0.0 0.00 0.15 0.00 71 1011.8